CZ-6A DEB

Satellite information

Favourite Embed

Satellite Type and Status

DEBRISIN ORBIT

Key statistics

Satellite CZ-6A DEB at a glance.

Uptime

336

Days in orbit

Revolutions

≈ 14.6

Per day

Orbit

LEO

Low Earth Orbit

Inclination

89.0

Latest

Satellite identification and parameters

Extended collection of information and parameters for CZ-6A DEB.

Object identification

Identified? True

Debris? True

Object name: CZ-6A DEB

International designator: 2024-140LC

Object number (NORAD): 60897

Object ID (CCSDS): 60897

Country: PEOPLES REPUBLIC OF CHINA (PRC)

Current information (Y/N): Y

RCS size: SMALL

Orbital parameters

Period: 98.882 minutes

Inclination: 89.0445 deg

SMA: 7083.322 km

Apoapsis: 774.127 km

Periapsis: 636.246 km

RAAN: 313.0936 deg

Eccentricy: 0.0097328

Argument of periapsis: 12.5694 deg

Mean anomaly: 347.7909 deg

Mean motion: 14.56288132 rev/day

Mean motion (dot): 0.00002872 rev/day2

B* drag term: 0.00060488 1/REarth

Two-line elements (TLE)

Creation date: July 8, 2025, 2:27 a.m.

Reference frame: TEME

Reference center: EARTH

Epoch: July 7, 2025, 8:28 p.m. UTC

TLE line 0: 0 CZ-6A DEB

TLE line 1: 1 60897U 24140LC 25188.85320474 .00002872 00000-0 60488-3 0 9996

TLE line 2: 2 60897 89.0445 313.0936 0097328 12.5694 347.7909 14.56288132 46934

Live tracking on map

Real-time ground track for satellite CZ-6A DEB.

In-orbit conjunctions

A list of the most updated potential collisions computed for object CZ-6A DEB.

Target Orbit TCA Probability of collision Miss distance Type
CZ-6A DEB LEO 2025-02-07 13:22:04 0.0001914695 783.0 (m) DEBRIS
CZ-2D DEB SSO 2025-01-23 09:51:36 0.0003782057 71.0 (m) DEBRIS
RIGIDSPHERE 2 (LCS 4) LEO 2024-11-07 10:02:52 0.0003235747 647.0 (m) PAYLOAD
CZ-6A R/B LEO 2024-10-10 07:19:11 0.0003819019 80.0 (m) ROCKET BODY
CZ-6A DEB LEO 2024-10-02 22:03:35 0.0009277149 494.0 (m) DEBRIS

Associated space launch

18 Low Earth Orbit communication satellites with Ku, Q and V band payloads for the G60 constellation operated by Shanghai Spacecom Satellite Technology (SSST) with funding backed by the Shanghai local government. Initial constellation will consist of 1296 satellites by 2027 with long term plans to expand it to 12000 satellites.

CZ-6A DEB was lifted into orbit during the mission ‘Long March 6A | G60 Polar Group 01’, on board a Long March 6A space rocket.

The launch took place on Aug. 6, 2024, 6:42 a.m. from Launch Complex 9A.

For more information about the launch, click the button.

Launch to space Long March 6A | G60 Polar Group 01
Long March 6A | G60 Polar Group 01

Agency: N/A

Status: Launch Successful

Launch date: Aug. 6, 2024, 6:42 a.m. UTC

Rocket: Long March 6A

Launch pad: Launch Complex 9A

Location: Taiyuan Satellite Launch Center, People's Republic of China

...

Latest news about this satellite

News about space launch
Brightness of first Chinese broadband constellation satellites alarms astronomers

The first satellites of a Chinese broadband constellation are significantly brighter than those of Western systems, posing a new challenge for astronomers.

News about space launch
Chinese rocket stage breaks up into cloud of more than 700 pieces of space debris

HELSINKI — A Chinese Long March 6A rocket’s upper stage has fragmented into a cloud of over 700 pieces of space debris, adding to concerns about long-term orbital safety. China […]

News about space launch
China's Thousand Sails Megaconstellation Kicks Off with Dangerous Debris Field

China's Thousand Sails Megaconstellation Kicks Off with Dangerous Debris Field


Newsletter sign-up

Weekly statistics, charts and insights to help you stay on top of the space industry.